Sierra Vista, AZ

7:56 AM MST on September 26, 2017 (GMT -0700)
Sierra Vista Municipal-Libby Army Air Field

Weather History for KFHU - May, 2014

Change the Weather History Date:

Thursday, May 22, 2014

  Actual Average Record
Temperature  
Mean Temperature 73 °F -  
Max Temperature 84 °F 85 °F 100 °F (1989)
Min Temperature 62 °F 63 °F 45 °F (1992)
Cooling Degree Days 8    
Growing Degree Days 23 (Base 50)    
Moisture  
Dew Point 26 °F    
Average Humidity 19    
Maximum Humidity 34    
Minimum Humidity 10    
Precipitation  
Precipitation 0.00 in - - ()
Sea Level Pressure  
Sea Level Pressure 29.87 in    
Wind  
Wind Speed 12 mph (SSW)    
Max Wind Speed 25 mph    
Max Gust Speed 41 mph    
Visibility 10 miles    
Events Rain    
Averages and records for this station are not official NWS values.
T = Trace of Precipitation, MM = Missing Value Source: NWS Daily Summary

Daily Weather History Graph

Daily Weather History Graph

Search for Another Location

Airport or City:

Trip Planner

Search our weather history database for the weather conditions in past years. The results will help you decide how hot, cold, wet, or windy it might be!

Date:

Astronomy

May. 22, 2014 Rise Set
Actual Time 5:20 AM MST 7:15 PM MST
Civil Twilight 4:53 AM MST 7:42 PM MST
Nautical Twilight 4:20 AM MST 8:15 PM MST
Astronomical Twilight 3:45 AM MST 8:50 PM MST
Moon 1:18 AM MST (5/22) 1:29 PM MST (5/22)
Length of Visible Light 14h 49m
Length of Day
13h 54m
Last Quarter, 36% of the Moon is Illuminated
May 22
Last Quarter
May 28
New
Jun 5
First Quarter
Jun 12
Full
Jun 19
Last Quarter

Hourly Weather History & Observations

Time (MST) Temp. Dew Point Humidity Pressure Visibility Wind Dir Wind Speed Gust Speed Precip Events Conditions
12:55 AM 64.4 °F 28.4 °F 26% 29.85 in 10.0 mi SSE 4.6 mph - N/A   Partly Cloudy
1:55 AM 64.4 °F 26.6 °F 24% 29.85 in 10.0 mi South 4.6 mph - N/A   Partly Cloudy
2:55 AM 64.4 °F 28.4 °F 26% 29.84 in 10.0 mi SSW 6.9 mph - N/A   Partly Cloudy
3:55 AM 64.4 °F 33.8 °F 32% 29.83 in 10.0 mi South 9.2 mph - N/A   Clear
4:55 AM 62.6 °F 33.8 °F 34% 29.83 in 10.0 mi South 8.1 mph - N/A   Partly Cloudy
5:55 AM 62.6 °F 33.8 °F 34% 29.85 in 10.0 mi South 8.1 mph - N/A   Partly Cloudy
6:55 AM 69.8 °F 35.6 °F 28% 29.86 in 10.0 mi SE 11.5 mph - N/A   Partly Cloudy
7:55 AM 71.6 °F 35.6 °F 27% 29.87 in 10.0 mi ESE 18.4 mph - N/A   Partly Cloudy
8:55 AM 75.2 °F 33.8 °F 22% 29.87 in 10.0 mi SW 13.8 mph 20.7 mph N/A   Partly Cloudy
9:55 AM 77.0 °F 30.2 °F 18% 29.86 in 10.0 mi South 18.4 mph 25.3 mph N/A   Partly Cloudy
10:55 AM 80.6 °F 28.4 °F 15% 29.86 in 10.0 mi SSW 15.0 mph 34.5 mph N/A   Scattered Clouds
11:55 AM 82.4 °F 24.8 °F 12% 29.85 in 10.0 mi SW 24.2 mph 32.2 mph N/A   Scattered Clouds
12:55 PM 82.4 °F 21.2 °F 10% 29.84 in 10.0 mi South 23.0 mph 34.5 mph N/A   Scattered Clouds
1:27 PM 84.2 °F 21.2 °F 10% 30.02 in 10.0 mi South 25.3 mph 35.7 mph N/A Rain Light Rain Showers
1:51 PM 82.4 °F 23.0 °F 11% 30.02 in 10.0 mi SW 20.7 mph 35.7 mph N/A   Mostly Cloudy
1:55 PM 82.4 °F 26.6 °F 13% 29.83 in 10.0 mi SW 21.9 mph 31.1 mph N/A   Mostly Cloudy
2:55 PM 82.4 °F 21.2 °F 10% 29.82 in 10.0 mi SSW 23.0 mph 41.4 mph N/A   Mostly Cloudy
3:55 PM 80.6 °F 21.2 °F 11% 29.82 in 10.0 mi SW 20.7 mph 33.4 mph N/A   Scattered Clouds
4:55 PM 80.6 °F 21.2 °F 11% 29.82 in 10.0 mi SW 18.4 mph 41.4 mph N/A   Mostly Cloudy
5:55 PM 78.8 °F 21.2 °F 12% 29.83 in 10.0 mi SSW 13.8 mph 31.1 mph N/A   Partly Cloudy
6:55 PM 73.4 °F 21.2 °F 14% 29.85 in 10.0 mi SW 23.0 mph 36.8 mph N/A   Partly Cloudy
7:55 PM 73.4 °F 24.8 °F 16% 29.86 in 10.0 mi South 10.4 mph - N/A   Scattered Clouds
8:55 PM 71.6 °F 23.0 °F 16% 29.88 in 10.0 mi South 6.9 mph - N/A   Partly Cloudy
9:55 PM 69.8 °F 19.4 °F 15% 29.90 in 10.0 mi South 10.4 mph 16.1 mph N/A   Clear
10:55 PM 66.2 °F 21.2 °F 18% 29.90 in 10.0 mi Variable 3.5 mph - N/A   Clear
11:55 PM 64.4 °F 21.2 °F 19% 29.90 in 10.0 mi Variable 3.5 mph - N/A   Partly Cloudy